Find Starlink 32837

NORAD ID: 62812 Int'l Des: 2025-018 Owner: SPXS Country: US Constellation: starlink operational
LEOCIRCULAR

Current View

Loading 3D Globe...

About Starlink 32837

Starlink 32837 (NORAD 62812) is a starlink constellation satellite (v2 mini) launched Jan 24, 2025 by SPXS of US. It operates in LEO, CIRCULAR orbit with a mass of 730.00 kg.

About Starlink 32837

Description loading...

Upcoming Passes

Passes for default location (London). Set your location on the main map for personalized predictions.

Altitude History

Loading altitude history...

Two-Line Element Set

1 62812U 25018G 26169.35996461 .00018233 00000-0 62672-3 0 9995
2 62812 53.1582 201.8511 0001094 80.1881 279.9243 15.30174347 78593
Epoch: Jun 18, 2026 • Age: 31 hours

Current Status

Altitude 477.6 km
Velocity 7.63 km/s
Sub-Earth Point -7.62°S, 114.91°W
Launch Date Jan 24, 2025
Age 1.3 years
Type internet

Technical Details

Classification Payload
Mass 730.00 kg
Dry Mass 700.00 kg
Total Mass 730.00 kg
Length 0.30 m
Diameter 4.10 m
Span 29.00 m
Shape Box + pan
Manufacturer SPXS
Bus Type Starlink V2M
Phase Status In Orbit
Owner/State SPXS/US

Most Searched